Shelbyville, IN

4:54 PM EST on November 18, 2017 (GMT -0500)
Shelbyville Municipal

Weather History for KGEZ - October, 2012

Change the Weather History Date:

Tuesday, October 9, 2012

  Actual Average Record
Temperature  
Mean Temperature 49 °F 56 °F  
Max Temperature 63 °F 68 °F 85 °F (2010)
Min Temperature 34 °F 44 °F 34 °F (2012)
Degree Days  
Heating Degree Days 16 9  
Month to date heating degree days 103 74  
Since 1 July heating degree days 187 159  
Cooling Degree Days 0 1  
Month to date cooling degree days 2 9  
Year to date cooling degree days 1406 908  
Moisture  
Dew Point 38 °F    
Average Humidity 66    
Maximum Humidity 92    
Minimum Humidity 39    
Precipitation  
Precipitation T in 0.10 in 0.18 in (1999)
Month to date precipitation 1.24 0.97  
Year to date precipitation 23.91 34.42  
Sea Level Pressure  
Sea Level Pressure 30.05 in    
Wind  
Wind Speed 9 mph (South)    
Max Wind Speed 20 mph    
Max Gust Speed 24 mph    
Visibility 10 miles    
Events      
T = Trace of Precipitation, MM = Missing Value Source: NWS Daily Summary

Daily Weather History Graph

Daily Weather History Graph

Search for Another Location

Airport or City:

Trip Planner

Search our weather history database for the weather conditions in past years. The results will help you decide how hot, cold, wet, or windy it might be!

Date:

Astronomy

Oct. 09, 2012 Rise Set
Actual Time 7:47 AM EDT 7:12 PM EDT
Civil Twilight 7:20 AM EDT 7:39 PM EDT
Nautical Twilight 6:49 AM EDT 8:10 PM EDT
Astronomical Twilight 6:18 AM EDT 8:41 PM EDT
Moon 1:24 AM EDT (10/9) 3:38 PM EDT (10/9)
Length of Visible Light 12h 18m
Length of Day
11h 24m
Last Quarter, 37% of the Moon is Illuminated
Oct 9
Last Quarter
Oct 15
New
Oct 21
First Quarter
Oct 29
Full
Nov 6
Last Quarter

Hourly Weather History & Observations

Time (EDT) Temp. Windchill Dew Point Humidity Pressure Visibility Wind Dir Wind Speed Gust Speed Precip Events Conditions
12:53 AM 37.9 °F 35.5 °F 33.1 °F 83% 30.14 in 10.0 mi SSE 3.5 mph - N/A   Clear
1:53 AM 35.1 °F 32.2 °F 32.0 °F 89% 30.13 in 10.0 mi SSE 3.5 mph - N/A   Clear
2:53 AM 36.0 °F 31.1 °F 30.9 °F 82% 30.14 in 10.0 mi SSE 5.8 mph - N/A   Clear
4:53 AM 37.9 °F 33.5 °F 34.0 °F 86% 30.12 in 10.0 mi South 5.8 mph - N/A   Clear
5:53 AM 37.0 °F 33.3 °F 35.1 °F 93% 30.13 in 10.0 mi South 4.6 mph - N/A   Clear
6:53 AM 37.0 °F 32.4 °F 35.1 °F 93% 30.13 in 8.0 mi South 5.8 mph - N/A   Clear
7:53 AM 37.9 °F 31.5 °F 36.0 °F 93% 30.12 in 6.0 mi SSE 9.2 mph - N/A   Clear
8:53 AM 42.1 °F 37.1 °F 37.9 °F 85% 30.13 in 8.0 mi South 8.1 mph - 0.00 in   Clear
9:53 AM 46.9 °F - 39.9 °F 77% 30.13 in 10.0 mi South 8.1 mph - N/A   Clear
10:53 AM 52.0 °F - 41.0 °F 66% 30.13 in 10.0 mi SSW 9.2 mph - N/A   Clear
11:53 AM 57.0 °F - 39.0 °F 51% 30.11 in 10.0 mi SSW 13.8 mph 23.0 mph N/A   Clear
12:53 PM 59.0 °F - 39.0 °F 48% 30.08 in 10.0 mi SSW 16.1 mph 21.9 mph N/A   Clear
1:53 PM 60.1 °F - 39.9 °F 47% 30.04 in 10.0 mi SSW 15.0 mph - N/A   Clear
2:53 PM 62.1 °F - 39.0 °F 43% 30.01 in 10.0 mi South 12.7 mph 19.6 mph N/A   Clear
3:53 PM 63.0 °F - 39.9 °F 43% 29.98 in 10.0 mi South 15.0 mph - N/A   Clear
4:53 PM 63.0 °F - 39.0 °F 41% 29.97 in 10.0 mi South 13.8 mph 21.9 mph N/A   Clear
5:53 PM 62.1 °F - 37.9 °F 41% 29.95 in 10.0 mi South 15.0 mph - N/A   Clear
6:53 PM 59.0 °F - 39.0 °F 48% 29.96 in 10.0 mi SSW 9.2 mph - N/A   Clear
7:53 PM 53.1 °F - 39.0 °F 59% 29.96 in 10.0 mi SSW 5.8 mph - N/A   Clear
8:53 PM 52.0 °F - 39.9 °F 63% 29.95 in 10.0 mi South 6.9 mph - N/A   Clear
9:53 PM 48.9 °F - 39.9 °F 71% 29.95 in 10.0 mi South 5.8 mph - N/A   Clear
10:53 PM 48.9 °F - 39.9 °F 71% 29.94 in 10.0 mi South 8.1 mph - N/A   Clear
11:53 PM 48.9 °F - 41.0 °F 74% 29.94 in 10.0 mi South 9.2 mph - N/A   Clear